Time,TemperatureF,DewpointF,PressureIn,WindDirection,WindDirectionDegrees,WindSpeedMPH,WindSpeedGustMPH,Humidity,HourlyPrecipIn,Conditions,Clouds,dailyrainin,SoftwareType,DateUTC
2013-02-10 00:01:00,22.0,12.0,30.42,ENE,64,0.0,-999.0,64,-99.99,,,-99.99,,2013-02-10 05:01:00,
2013-02-10 00:11:00,22.0,12.0,30.42,ENE,64,0.0,-999.0,64,-99.99,,,-99.99,,2013-02-10 05:11:00,
2013-02-10 00:22:00,22.0,12.0,30.42,ENE,64,0.0,-999.0,65,-99.99,,,-99.99,,2013-02-10 05:22:00,
2013-02-10 00:32:00,22.0,12.0,30.42,ENE,64,0.0,-999.0,66,-99.99,,,-99.99,,2013-02-10 05:32:00,
2013-02-10 00:41:00,22.0,12.0,30.42,ENE,64,0.0,-999.0,66,-99.99,,,-99.99,,2013-02-10 05:41:00,
2013-02-10 00:52:00,21.0,12.0,30.42,ENE,64,0.0,-999.0,68,-99.99,,,-99.99,,2013-02-10 05:52:00,
2013-02-10 01:02:00,21.0,12.0,30.42,ENE,64,0.0,-999.0,68,-99.99,,,-99.99,,2013-02-10 06:02:00,
2013-02-10 01:11:00,21.0,12.0,30.42,ENE,64,0.0,-999.0,68,-99.99,,,-99.99,,2013-02-10 06:11:00,
2013-02-10 01:21:00,20.0,12.0,30.42,ENE,64,0.0,-999.0,70,-99.99,,,-99.99,,2013-02-10 06:21:00,
2013-02-10 01:32:00,20.0,12.0,30.42,ENE,64,0.0,-999.0,71,-99.99,,,-99.99,,2013-02-10 06:32:00,
2013-02-10 01:42:00,20.0,12.0,30.42,ENE,64,0.0,-999.0,71,-99.99,,,-99.99,,2013-02-10 06:42:00,
2013-02-10 01:52:00,19.0,11.0,30.43,ENE,64,0.0,-999.0,71,-99.99,,,-99.99,,2013-02-10 06:52:00,
2013-02-10 02:01:00,19.0,11.0,30.43,ENE,64,0.0,-999.0,72,-99.99,,,-99.99,,2013-02-10 07:01:00,
2013-02-10 02:11:00,19.0,11.0,30.43,ENE,64,0.0,-999.0,72,-99.99,,,-99.99,,2013-02-10 07:11:00,
2013-02-10 02:21:00,19.0,11.0,30.44,ENE,64,0.0,-999.0,72,-99.99,,,-99.99,,2013-02-10 07:21:00,
2013-02-10 02:31:00,18.0,11.0,30.44,ENE,64,0.0,-999.0,74,-99.99,,,-99.99,,2013-02-10 07:31:00,
2013-02-10 02:42:00,18.0,11.0,30.44,ENE,64,0.0,-999.0,74,-99.99,,,-99.99,,2013-02-10 07:42:00,
2013-02-10 02:52:00,18.0,11.0,30.44,ENE,64,0.0,-999.0,75,-99.99,,,-99.99,,2013-02-10 07:52:00,
2013-02-10 03:01:00,18.0,12.0,30.44,ENE,64,0.0,-999.0,76,-99.99,,,-99.99,,2013-02-10 08:01:00,
2013-02-10 03:11:00,18.0,12.0,30.44,ENE,64,0.0,-999.0,76,-99.99,,,-99.99,,2013-02-10 08:11:00,
2013-02-10 03:21:00,18.0,12.0,30.43,ENE,64,0.0,-999.0,78,-99.99,,,-99.99,,2013-02-10 08:21:00,
2013-02-10 03:32:00,17.0,12.0,30.43,ENE,64,0.0,-999.0,79,-99.99,,,-99.99,,2013-02-10 08:32:00,
2013-02-10 03:43:00,17.0,12.0,30.43,ENE,64,0.0,-999.0,79,-99.99,,,-99.99,,2013-02-10 08:43:00,
2013-02-10 03:52:00,17.0,12.0,30.43,ENE,64,0.0,-999.0,80,-99.99,,,-99.99,,2013-02-10 08:52:00,
2013-02-10 04:02:00,17.0,12.0,30.42,ENE,64,0.0,-999.0,81,-99.99,,,-99.99,,2013-02-10 09:02:00,
2013-02-10 04:11:00,17.0,12.0,30.42,ENE,64,0.0,-999.0,81,-99.99,,,-99.99,,2013-02-10 09:11:00,
2013-02-10 04:21:00,16.0,11.0,30.43,ENE,64,0.0,-999.0,81,-99.99,,,-99.99,,2013-02-10 09:21:00,
2013-02-10 04:32:00,16.0,11.0,30.44,ENE,64,0.0,-999.0,81,-99.99,,,-99.99,,2013-02-10 09:32:00,
2013-02-10 04:42:00,16.0,11.0,30.44,ENE,64,0.0,-999.0,81,-99.99,,,-99.99,,2013-02-10 09:42:00,
2013-02-10 04:52:00,16.0,11.0,30.44,ENE,64,0.0,-999.0,82,-99.99,,,-99.99,,2013-02-10 09:52:00,
2013-02-10 05:01:00,16.0,11.0,30.44,ENE,64,0.0,-999.0,82,-99.99,,,-99.99,,2013-02-10 10:01:00,
2013-02-10 05:11:00,16.0,11.0,30.44,ENE,64,0.0,-999.0,82,-99.99,,,-99.99,,2013-02-10 10:11:00,
2013-02-10 05:21:00,16.0,11.0,30.44,ENE,64,0.0,-999.0,82,-99.99,,,-99.99,,2013-02-10 10:21:00,
2013-02-10 05:31:00,15.0,11.0,30.44,ENE,64,0.0,-999.0,82,-99.99,,,-99.99,,2013-02-10 10:31:00,
2013-02-10 05:42:00,15.0,11.0,30.44,ENE,64,0.0,-999.0,82,-99.99,,,-99.99,,2013-02-10 10:42:00,
2013-02-10 05:51:00,15.0,11.0,30.44,ENE,64,0.0,-999.0,82,-99.99,,,-99.99,,2013-02-10 10:51:00,
2013-02-10 06:01:00,15.0,11.0,30.44,ENE,64,0.0,-999.0,82,-99.99,,,-99.99,,2013-02-10 11:01:00,
2013-02-10 06:11:00,15.0,11.0,30.44,ENE,64,0.0,-999.0,82,-99.99,,,-99.99,,2013-02-10 11:11:00,
2013-02-10 06:22:00,15.0,11.0,30.44,ENE,64,0.0,-999.0,82,-99.99,,,-99.99,,2013-02-10 11:22:00,
2013-02-10 06:32:00,15.0,11.0,30.45,ENE,64,0.0,-999.0,82,-99.99,,,-99.99,,2013-02-10 11:32:00,
2013-02-10 06:42:00,15.0,11.0,30.45,ENE,64,0.0,-999.0,82,-99.99,,,-99.99,,2013-02-10 11:42:00,
2013-02-10 06:52:00,15.0,11.0,30.45,ENE,64,0.0,-999.0,82,-99.99,,,-99.99,,2013-02-10 11:52:00,
2013-02-10 07:02:00,15.0,11.0,30.45,ENE,64,0.0,-999.0,83,-99.99,,,-99.99,,2013-02-10 12:02:00,
2013-02-10 07:12:00,15.0,11.0,30.45,ENE,64,0.0,-999.0,83,-99.99,,,-99.99,,2013-02-10 12:12:00,
2013-02-10 07:21:00,15.0,11.0,30.47,ENE,64,0.0,-999.0,84,-99.99,,,-99.99,,2013-02-10 12:21:00,
2013-02-10 07:32:00,15.0,11.0,30.48,ENE,65,0.0,-999.0,84,-99.99,,,-99.99,,2013-02-10 12:32:00,
2013-02-10 07:42:00,15.0,11.0,30.48,ENE,65,0.0,-999.0,84,-99.99,,,-99.99,,2013-02-10 12:42:00,
2013-02-10 07:52:00,15.0,11.0,30.49,ENE,64,0.0,-999.0,85,-99.99,,,-99.99,,2013-02-10 12:52:00,
2013-02-10 08:02:00,15.0,11.0,30.49,ENE,64,0.0,-999.0,85,-99.99,,,-99.99,,2013-02-10 13:02:00,
2013-02-10 08:11:00,15.0,11.0,30.49,ENE,64,0.0,-999.0,85,-99.99,,,-99.99,,2013-02-10 13:11:00,
2013-02-10 08:21:00,16.0,13.0,30.50,ENE,64,0.0,-999.0,86,-99.99,,,-99.99,,2013-02-10 13:21:00,
2013-02-10 08:31:00,16.0,13.0,30.50,ENE,64,0.0,-999.0,87,-99.99,,,-99.99,,2013-02-10 13:31:00,
2013-02-10 08:42:00,16.0,13.0,30.50,ENE,64,0.0,-999.0,87,-99.99,,,-99.99,,2013-02-10 13:42:00,
2013-02-10 08:52:00,17.0,14.0,30.48,ENE,64,0.0,-999.0,88,-99.99,,,-99.99,,2013-02-10 13:52:00,
2013-02-10 09:02:00,18.0,15.0,30.48,ENE,64,0.0,-999.0,88,-99.99,,,-99.99,,2013-02-10 14:02:00,
2013-02-10 09:11:00,18.0,15.0,30.48,ENE,64,0.0,-999.0,88,-99.99,,,-99.99,,2013-02-10 14:11:00,
2013-02-10 09:21:00,19.0,17.0,30.48,ENE,64,0.0,-999.0,90,-99.99,,,-99.99,,2013-02-10 14:21:00,
2013-02-10 09:32:00,22.0,19.0,30.49,NE,41,0.0,-999.0,88,-99.99,,,-99.99,,2013-02-10 14:32:00,
2013-02-10 09:41:00,22.0,19.0,30.49,NE,41,0.0,-999.0,88,-99.99,,,-99.99,,2013-02-10 14:41:00,
2013-02-10 09:52:00,24.0,19.0,30.48,NE,41,0.0,-999.0,82,-99.99,,,-99.99,,2013-02-10 14:52:00,
2013-02-10 10:02:00,24.0,19.0,30.48,NE,41,0.0,-999.0,82,-99.99,,,-99.99,,2013-02-10 15:02:00,
2013-02-10 10:11:00,24.0,19.0,30.48,NE,41,0.0,-999.0,82,-99.99,,,-99.99,,2013-02-10 15:11:00,
2013-02-10 10:22:00,26.0,18.0,30.47,NE,41,0.0,-999.0,70,-99.99,,,-99.99,,2013-02-10 15:22:00,
2013-02-10 10:32:00,28.0,18.0,30.48,NE,35,0.0,-999.0,67,-99.99,,,-99.99,,2013-02-10 15:32:00,
2013-02-10 10:42:00,28.0,18.0,30.48,NE,35,0.0,-999.0,67,-99.99,,,-99.99,,2013-02-10 15:42:00,
2013-02-10 10:52:00,30.0,19.0,30.48,South,175,0.0,-999.0,62,-99.99,,,-99.99,,2013-02-10 15:52:00,
2013-02-10 11:02:00,32.0,19.0,30.47,South,169,0.0,-999.0,57,-99.99,,,-99.99,,2013-02-10 16:02:00,
2013-02-10 11:12:00,33.0,17.0,30.47,SSE,154,1.0,-999.0,52,-99.99,,,-99.99,,2013-02-10 16:12:00,
2013-02-10 11:22:00,33.0,17.0,30.47,SSE,154,1.0,-999.0,52,-99.99,,,-99.99,,2013-02-10 16:22:00,
2013-02-10 11:32:00,36.0,19.0,30.46,ESE,120,0.0,-999.0,49,-99.99,,,-99.99,,2013-02-10 16:32:00,
2013-02-10 11:42:00,36.0,17.0,30.46,South,174,0.0,-999.0,46,-99.99,,,-99.99,,2013-02-10 16:42:00,
2013-02-10 11:52:00,36.0,17.0,30.46,South,174,0.0,-999.0,46,-99.99,,,-99.99,,2013-02-10 16:52:00,
2013-02-10 12:02:00,40.0,16.0,30.43,SSE,147,1.0,-999.0,37,-99.99,,,-99.99,,2013-02-10 17:02:00,
2013-02-10 12:22:00,41.0,16.0,30.42,South,169,1.0,-999.0,36,-99.99,,,-99.99,,2013-02-10 17:22:00,
2013-02-10 12:32:00,41.0,15.0,30.42,SSW,202,3.0,-999.0,35,-99.99,,,-99.99,,2013-02-10 17:32:00,
2013-02-10 12:42:00,40.0,16.0,30.42,SSW,193,2.0,-999.0,37,-99.99,,,-99.99,,2013-02-10 17:42:00,
2013-02-10 12:52:00,40.0,16.0,30.42,SSW,193,2.0,-999.0,37,-99.99,,,-99.99,,2013-02-10 17:52:00,
2013-02-10 13:02:00,39.0,16.0,30.41,South,188,3.0,-999.0,38,-99.99,,,-99.99,,2013-02-10 18:02:00,
2013-02-10 13:12:00,40.0,18.0,30.41,SW,219,5.0,-999.0,40,-99.99,,,-99.99,,2013-02-10 18:12:00,
2013-02-10 13:22:00,40.0,18.0,30.41,SW,219,5.0,-999.0,40,-99.99,,,-99.99,,2013-02-10 18:22:00,
2013-02-10 13:32:00,41.0,16.0,30.39,SSE,158,4.0,-999.0,36,-99.99,,,-99.99,,2013-02-10 18:32:00,
2013-02-10 13:42:00,41.0,16.0,30.39,SSE,158,4.0,-999.0,36,-99.99,,,-99.99,,2013-02-10 18:42:00,
2013-02-10 13:52:00,42.0,15.0,30.38,SE,144,5.0,-999.0,33,-99.99,,,-99.99,,2013-02-10 18:52:00,
2013-02-10 14:02:00,42.0,15.0,30.37,SE,134,5.0,-999.0,33,-99.99,,,-99.99,,2013-02-10 19:02:00,
2013-02-10 14:12:00,43.0,16.0,30.36,SSE,165,5.0,-999.0,33,-99.99,,,-99.99,,2013-02-10 19:12:00,
2013-02-10 14:22:00,43.0,16.0,30.36,SSE,165,5.0,-999.0,33,-99.99,,,-99.99,,2013-02-10 19:22:00,
2013-02-10 14:32:00,43.0,15.0,30.35,SSE,158,5.0,-999.0,32,-99.99,,,-99.99,,2013-02-10 19:32:00,
2013-02-10 14:42:00,43.0,16.0,30.35,South,171,5.0,-999.0,33,-99.99,,,-99.99,,2013-02-10 19:42:00,
2013-02-10 14:52:00,43.0,16.0,30.35,South,171,5.0,-999.0,33,-99.99,,,-99.99,,2013-02-10 19:52:00,
2013-02-10 15:02:00,44.0,16.0,30.34,South,175,4.0,-999.0,32,-99.99,,,-99.99,,2013-02-10 20:02:00,
2013-02-10 15:11:00,44.0,16.0,30.34,South,175,4.0,-999.0,32,-99.99,,,-99.99,,2013-02-10 20:11:00,
2013-02-10 15:22:00,44.0,15.0,30.33,ESE,120,3.0,-999.0,31,-99.99,,,-99.99,,2013-02-10 20:22:00,
2013-02-10 15:32:00,44.0,15.0,30.33,South,185,4.0,-999.0,31,-99.99,,,-99.99,,2013-02-10 20:32:00,
2013-02-10 15:42:00,44.0,15.0,30.33,SW,216,5.0,-999.0,31,-99.99,,,-99.99,,2013-02-10 20:42:00,
2013-02-10 15:52:00,44.0,15.0,30.33,SW,216,5.0,-999.0,31,-99.99,,,-99.99,,2013-02-10 20:52:00,
2013-02-10 16:02:00,43.0,14.0,30.33,South,181,5.0,-999.0,31,-99.99,,,-99.99,,2013-02-10 21:02:00,
2013-02-10 16:11:00,43.0,14.0,30.33,South,181,5.0,-999.0,31,-99.99,,,-99.99,,2013-02-10 21:11:00,
2013-02-10 16:22:00,43.0,16.0,30.33,South,188,5.0,-999.0,33,-99.99,,,-99.99,,2013-02-10 21:22:00,
2013-02-10 16:32:00,42.0,15.0,30.33,SSE,157,2.0,-999.0,33,-99.99,,,-99.99,,2013-02-10 21:32:00,
2013-02-10 16:42:00,42.0,15.0,30.32,SSE,167,3.0,-999.0,33,-99.99,,,-99.99,,2013-02-10 21:42:00,
2013-02-10 16:52:00,42.0,15.0,30.32,SSE,167,3.0,-999.0,33,-99.99,,,-99.99,,2013-02-10 21:52:00,
2013-02-10 17:02:00,42.0,15.0,30.31,South,191,2.0,-999.0,33,-99.99,,,-99.99,,2013-02-10 22:02:00,
2013-02-10 17:11:00,41.0,14.0,30.32,South,175,2.0,-999.0,33,-99.99,,,-99.99,,2013-02-10 22:11:00,
2013-02-10 17:22:00,41.0,14.0,30.32,South,175,2.0,-999.0,33,-99.99,,,-99.99,,2013-02-10 22:22:00,
2013-02-10 17:32:00,41.0,13.0,30.33,SSE,161,1.0,-999.0,32,-99.99,,,-99.99,,2013-02-10 22:32:00,
2013-02-10 17:42:00,41.0,14.0,30.31,SSE,152,1.0,-999.0,33,-99.99,,,-99.99,,2013-02-10 22:42:00,
2013-02-10 17:53:00,41.0,14.0,30.31,SSE,152,1.0,-999.0,33,-99.99,,,-99.99,,2013-02-10 22:53:00,
2013-02-10 18:02:00,40.0,14.0,30.32,SSE,152,0.0,-999.0,34,-99.99,,,-99.99,,2013-02-10 23:02:00,
2013-02-10 18:11:00,40.0,14.0,30.32,SSE,152,0.0,-999.0,34,-99.99,,,-99.99,,2013-02-10 23:11:00,
2013-02-10 18:22:00,40.0,14.0,30.32,SSE,152,0.0,-999.0,34,-99.99,,,-99.99,,2013-02-10 23:22:00,
2013-02-10 18:32:00,40.0,14.0,30.31,SSE,168,2.0,-999.0,34,-99.99,,,-99.99,,2013-02-10 23:32:00,
2013-02-10 18:42:00,40.0,15.0,30.30,South,176,2.0,-999.0,36,-99.99,,,-99.99,,2013-02-10 23:42:00,
2013-02-10 18:52:00,40.0,15.0,30.30,South,176,2.0,-999.0,36,-99.99,,,-99.99,,2013-02-10 23:52:00,
2013-02-10 19:02:00,40.0,15.0,30.30,SSE,158,3.0,-999.0,35,-99.99,,,-99.99,,2013-02-11 00:02:00,
2013-02-10 19:11:00,40.0,15.0,30.30,SE,128,3.0,-999.0,36,-99.99,,,-99.99,,2013-02-11 00:11:00,
2013-02-10 19:22:00,40.0,15.0,30.30,SE,128,3.0,-999.0,36,-99.99,,,-99.99,,2013-02-11 00:22:00,
2013-02-10 19:32:00,40.0,15.0,30.30,SSE,148,4.0,-999.0,36,-99.99,,,-99.99,,2013-02-11 00:32:00,
2013-02-10 19:42:00,40.0,15.0,30.30,SSE,155,5.0,-999.0,36,-99.99,,,-99.99,,2013-02-11 00:42:00,
2013-02-10 19:52:00,40.0,15.0,30.30,SSE,155,5.0,-999.0,36,-99.99,,,-99.99,,2013-02-11 00:52:00,
2013-02-10 20:01:00,40.0,15.0,30.29,SSW,208,6.0,-999.0,36,-99.99,,,-99.99,,2013-02-11 01:01:00,
2013-02-10 20:11:00,40.0,15.0,30.29,SSW,208,6.0,-999.0,36,-99.99,,,-99.99,,2013-02-11 01:11:00,
2013-02-10 20:21:00,40.0,15.0,30.29,SE,141,4.0,-999.0,36,-99.99,,,-99.99,,2013-02-11 01:21:00,
2013-02-10 20:32:00,40.0,16.0,30.29,SSW,203,4.0,-999.0,38,-99.99,,,-99.99,,2013-02-11 01:32:00,
2013-02-10 20:42:00,40.0,16.0,30.28,SE,127,4.0,-999.0,37,-99.99,,,-99.99,,2013-02-11 01:42:00,
2013-02-10 20:52:00,40.0,16.0,30.28,SE,127,4.0,-999.0,37,-99.99,,,-99.99,,2013-02-11 01:52:00,
2013-02-10 21:01:00,40.0,17.0,30.28,SSE,151,4.0,-999.0,39,-99.99,,,-99.99,,2013-02-11 02:01:00,
2013-02-10 21:11:00,40.0,17.0,30.28,SSE,151,4.0,-999.0,39,-99.99,,,-99.99,,2013-02-11 02:11:00,
2013-02-10 21:21:00,40.0,17.0,30.28,South,189,6.0,-999.0,39,-99.99,,,-99.99,,2013-02-11 02:21:00,
2013-02-10 21:32:00,40.0,18.0,30.28,SSE,167,4.0,-999.0,40,-99.99,,,-99.99,,2013-02-11 02:32:00,
2013-02-10 21:42:00,40.0,17.0,30.26,SSE,161,6.0,-999.0,39,-99.99,,,-99.99,,2013-02-11 02:42:00,
2013-02-10 21:52:00,40.0,17.0,30.26,SSE,161,6.0,-999.0,39,-99.99,,,-99.99,,2013-02-11 02:52:00,
2013-02-10 22:02:00,40.0,18.0,30.25,South,176,5.0,-999.0,40,-99.99,,,-99.99,,2013-02-11 03:02:00,
2013-02-10 22:11:00,40.0,18.0,30.24,SSE,165,6.0,-999.0,40,-99.99,,,-99.99,,2013-02-11 03:11:00,
2013-02-10 22:21:00,40.0,18.0,30.24,SSE,165,6.0,-999.0,40,-99.99,,,-99.99,,2013-02-11 03:21:00,
2013-02-10 22:32:00,40.0,18.0,30.24,SSE,150,6.0,-999.0,41,-99.99,,,-99.99,,2013-02-11 03:32:00,
2013-02-10 22:42:00,40.0,18.0,30.24,South,182,7.0,-999.0,41,-99.99,,,-99.99,,2013-02-11 03:42:00,
2013-02-10 22:52:00,40.0,18.0,30.24,South,182,7.0,-999.0,41,-99.99,,,-99.99,,2013-02-11 03:52:00,
2013-02-10 23:01:00,40.0,18.0,30.24,South,172,4.0,-999.0,40,-99.99,,,-99.99,,2013-02-11 04:01:00,
2013-02-10 23:11:00,40.0,18.0,30.24,South,172,4.0,-999.0,40,-99.99,,,-99.99,,2013-02-11 04:11:00,
2013-02-10 23:22:00,40.0,18.0,30.22,SSE,165,4.0,-999.0,41,-99.99,,,-99.99,,2013-02-11 04:22:00,
2013-02-10 23:32:00,40.0,18.0,30.21,SSE,157,4.0,-999.0,41,-99.99,,,-99.99,,2013-02-11 04:32:00,
2013-02-10 23:42:00,40.0,18.0,30.21,ESE,114,5.0,-999.0,41,-99.99,,,-99.99,,2013-02-11 04:42:00,
2013-02-10 23:52:00,40.0,18.0,30.21,ESE,114,5.0,-999.0,41,-99.99,,,-99.99,,2013-02-11 04:52:00,